User: anonymous   Login
Location: Lawrence Hall of Science
(37.8785°N, 122.2415°W)
Time: 07:03:19
(UTC-08:00)
Language:

NOSS 3-1 (C) - Orbit

View from above orbital plane
View from above orbital plane
View from above satellite
View from above satellite

Ground track
Ground track

The orbit data is extracted from the following two-line orbital elements,

1 26907U 01040C   17346.76887919 0.00000040  00000-0  46027-4 0    05
2 26907  63.4098 292.3053 0389000 359.1505   0.8495 13.41275678    08
Epoch (UTC): 12 December 2017 18:27:11
Eccentricity: 0.0389000
inclination: 63.4098°
perigee height: 813 km
apogee height: 1395 km
right ascension of ascending node: 292.3053°
argument of perigee: 359.1505°
revolutions per day: 13.41275678
mean anomaly at epoch: 0.8495°
orbit number at epoch: 0

The dashed part of the orbit path shows where the satellite is in the earth's shadow,  

DLR